Location: Chevoux
(46.3801°N, 4.9476°E)
Time: 22:56:14
(UTC+00:00)

H-2A R/B - Pass Details

Date: 28 January 2021
Orbit: 529 x 652 km, 98.3° (Epoch: 04 March)

Event Time Altitude Azimuth Distance (km) Brightness Sun altitude
Rises 17:35:41 0° 187° (S) 2,781 6.2 -10.0°
Reaches altitude 10° 17:37:56 10° 196° (SSW) 1,908 5.5 -10.4°
Maximum altitude 17:41:44 35° 263° (W) 987 4.4 -11.0°
Drops below altitude 10° 17:45:42 10° 329° (NNW) 1,992 5.4 -11.7°
Sets 17:48:06 0° 339° (NNW) 2,923 6.1 -12.1°
